Lake James Weather Center

Moon Phase Calendar



Lake James Water Level
Online Cameras

 


      

Current Conditions in Angola
10/24/2020 7:48:27 PM

41°F
Feels Like 32
Clear
Humidity
65%
Pressure
30.18"
Wind
7.5 mph (NNE)
Dew Point
30°F
UV Index
3/10 (Moderate)
Visibility
6 mi

Hourly Forecast

Date & Time Sat, Oct 24
7:00 PM
Sat, Oct 24
8:00 PM
Sat, Oct 24
9:00 PM
Sat, Oct 24
10:00 PM
Sat, Oct 24
11:00 PM
Sun, Oct 25
12:00 AM
Sun, Oct 25
1:00 AM
Sun, Oct 25
2:00 AM
Sun, Oct 25
3:00 AM
Sun, Oct 25
4:00 AM
Sun, Oct 25
5:00 AM
Sun, Oct 25
6:00 AM
Sun, Oct 25
7:00 AM
Sun, Oct 25
8:00 AM
Sun, Oct 25
9:00 AM
Sun, Oct 25
10:00 AM
Sun, Oct 25
11:00 AM
Sun, Oct 25
12:00 PM
Sun, Oct 25
1:00 PM
Sun, Oct 25
2:00 PM
Sun, Oct 25
3:00 PM
Sun, Oct 25
4:00 PM
Sun, Oct 25
5:00 PM
Sun, Oct 25
6:00 PM
Sun, Oct 25
7:00 PM
Sun, Oct 25
8:00 PM
Sun, Oct 25
9:00 PM
Sun, Oct 25
10:00 PM
Sun, Oct 25
11:00 PM
Mon, Oct 26
12:00 AM
Mon, Oct 26
1:00 AM
Mon, Oct 26
2:00 AM
Mon, Oct 26
3:00 AM
Mon, Oct 26
4:00 AM
Mon, Oct 26
5:00 AM
Mon, Oct 26
6:00 AM
Mon, Oct 26
7:00 AM
Mon, Oct 26
8:00 AM
Mon, Oct 26
9:00 AM
Mon, Oct 26
10:00 AM
Mon, Oct 26
11:00 AM
Mon, Oct 26
12:00 PM
Mon, Oct 26
1:00 PM
Mon, Oct 26
2:00 PM
Mon, Oct 26
3:00 PM
Mon, Oct 26
4:00 PM
Mon, Oct 26
5:00 PM
Mon, Oct 26
6:00 PM
Condition
Clear

Clear

Clear

Clear

Clear

Clear

Clear

Clear

Clouds

Clouds

Clouds

Clouds

Clouds

Clouds

Clouds

Clouds

Clouds

Clouds

Clouds

Clouds

Clouds

Clouds

Clouds

Clouds

Clouds

Clouds

Clouds

Clouds

Clouds

Clouds

Clouds

Clouds

Clouds

Clouds

Clouds

Clouds

Clouds

Clouds

Clouds

Clouds

Clouds

Rain

Rain

Clouds

Clouds

Clouds

Clouds

Clouds
Temperature 41°F41°F40°F39°F38°F37°F36°F36°F36°F35°F35°F34°F35°F34°F36°F39°F42°F45°F46°F47°F47°F46°F45°F44°F44°F44°F44°F43°F43°F43°F43°F43°F42°F41°F40°F40°F40°F40°F40°F39°F40°F40°F40°F43°F44°F44°F43°F42°F
Feels Like 33°F33°F32°F31°F31°F30°F30°F29°F29°F27°F27°F27°F27°F27°F28°F31°F33°F35°F37°F38°F38°F38°F38°F37°F36°F36°F36°F36°F37°F36°F35°F34°F34°F32°F31°F31°F31°F31°F31°F31°F31°F32°F33°F37°F37°F37°F36°F36°F
Cloudiness 1%1%0%0%0%0%5%4%85%46%31%25%31%36%76%65%49%56%62%65%97%98%98%99%100%100%100%100%100%100%100%100%97%98%99%99%99%99%100%100%100%100%100%100%100%100%100%100%
Visibility 6 mi6 mi6 mi6 mi6 mi6 mi6 mi6 mi6 mi6 mi6 mi6 mi6 mi6 mi6 mi6 mi6 mi6 mi6 mi6 mi6 mi6 mi6 mi6 mi6 mi6 mi6 mi6 mi6 mi6 mi6 mi6 mi6 mi6 mi6 mi6 mi6 mi6 mi6 mi6 mi6 mi6 mi6 mi6 mi6 mi6 mi6 mi6 mi
Precipitation 0%0%0%0%0%0%0%0%0%0%0%0%0%0%0%0%0%0%0%0%0%0%0%0%0%0%0%0%0%0%0%0%0%0%0%0%0%0%0%0%7%40%69%61%0%0%0%0%
Humidity 65%67%69%73%77%78%80%82%81%86%88%89%88%89%82%72%64%59%56%54%54%56%58%60%61%60%61%64%67%66%64%64%65%68%71%72%73%75%77%80%82%83%84%77%75%73%74%74%
Dew Point 30°F31°F31°F31°F31°F28°F28°F28°F28°F29°F30°F30°F30°F30°F30°F29°F30°F30°F30°F30°F30°F30°F31°F30°F29°F28°F30°F32°F33°F33°F31°F30°F30°F30°F31°F32°F32°F33°F33°F34°F35°F35°F36°F37°F36°F36°F35°F35°F
Pressure 30.18"30.18"30.24"30.24"30.24"30.24"30.21"30.24"30.24"30.21"30.21"30.21"30.24"30.24"30.24"30.24"30.24"30.21"30.21"30.21"30.18"30.18"30.15"30.15"30.15"30.18"30.18"30.18"30.18"30.18"30.15"30.15"30.18"30.18"30.18"30.18"30.21"30.21"30.24"30.27"30.27"30.27"30.27"30.27"30.24"30.24"30.27"30.27"
Wind Speed 6.3 mph7.2 mph7.6 mph7.3 mph6 mph5.2 mph4.8 mph4.7 mph6.2 mph6.9 mph6.8 mph6.7 mph6.7 mph6.8 mph7.5 mph9 mph9.9 mph10.3 mph9.8 mph9.7 mph9 mph8.6 mph6.5 mph6.6 mph6.6 mph7.1 mph7.2 mph6.9 mph6 mph6.7 mph7.7 mph8.8 mph9 mph10.6 mph10.1 mph10 mph9.9 mph10.3 mph9.8 mph9.6 mph8.8 mph8.9 mph7.9 mph6.3 mph5.9 mph6.8 mph6.1 mph6.2 mph
Wind
Direction
21°
NNE
25°
NNE
32°
NNE
46°
NE
56°
NE
74°
ENE
73°
ENE
50°
NE
37°
NE
42°
NE
54°
NE
50°
NE
54°
NE
62°
ENE
55°
NE
58°
ENE
63°
ENE
71°
ENE
69°
ENE
65°
ENE
56°
NE
54°
NE
56°
NE
57°
ENE
45°
NE
44°
NE
53°
NE
58°
ENE
49°
NE
46°
NE
25°
NNE
26°
NNE
26°
NNE
19°
NNE
12°
NNE
21°
NNE
21°
NNE
16°
NNE
15°
NNE
14°
NNE
12°
NNE
12°
NNE
16°
NNE
357°
N
358°
N
344°
NNW
352°
N
359°
N

Daily Forecast

Date High Low Precip. Humidity
Today
Oct 24

Clear
46 °F
35 °F
0%
57%
Sunday
Oct 25

Clouds
44 °F
34 °F
0%
61%
Monday
Oct 26

Rain
44 °F
40 °F
30%
75%
Tuesday
Oct 27

Rain
47 °F
40 °F
52%
71%
Wednesday
Oct 28

Rain
52 °F
43 °F
60%
83%
Thursday
Oct 29

Rain
49 °F
38 °F
100%
86%
Friday
Oct 30

Clear
44 °F
29 °F
3%
60%
Saturday
Oct 31

Clear
48 °F
32 °F
0%
52%
Sunday
Nov 1

Clouds
48 °F
38 °F
0%
60%
Monday
Nov 2

Clear
46 °F
31 °F
0%
57%
Tuesday
Nov 3

Clear
54 °F
35 °F
0%
52%
Wednesday
Nov 4

Clouds
49 °F
38 °F
0%
68%
Thursday
Nov 5

Clouds
46 °F
30 °F
0%
58%
Friday
Nov 6

Clouds
43 °F
32 °F
0%
70%
Saturday
Nov 7

Clouds
36 °F
27 °F
54%
78%
Sunday
Nov 8

Clear
41 °F
28 °F
42%
66%


Temperature 8-14 Day Outlook



Precipitation 8-14 Day Outlook




Quick Links
Lake James News
Lake James Photos
Lake James Videos




About Us
Contact Us
Site Map
Search Site
Advertise With Us
   
James-IN.LakesOnline.com
THE LAKE JAMES WEBSITE

Copyright 2020, Lakes Online
Privacy    |    Legal